Weather History for Waco, TX

Change the Weather History Date:

Sunday, March 3, 2013

  Actual Average Record
Temperature  
Mean Temperature 53 °F 55 °F  
Max Temperature 74 °F 65 °F 83 °F (1974)
Min Temperature 31 °F 44 °F 15 °F (1943)
Degree Days  
Heating Degree Days 12 11  
Month to date heating degree days 54 33  
Since 1 July heating degree days 1620 1845  
Cooling Degree Days 0 1  
Month to date cooling degree days 0 2  
Year to date cooling degree days 17 11  
Growing Degree Days 5 (Base 50)    
Moisture  
Dew Point 31 °F    
Average Humidity 49    
Maximum Humidity 75    
Minimum Humidity 23    
Precipitation  
Precipitation 0.00 in 0.11 in 1.17 in (1945)
Month to date precipitation T 0.33  
Year to date precipitation 7.15 5.08  
Snow  
Snow 0.00 in 0.00 in 0.20 in (1965)
Month to date snowfall 0.0 0.0  
Since 1 July snowfall T 0.9  
Snow Depth 0.00 in    
Sea Level Pressure  
Sea Level Pressure 30.06 in    
Wind  
Wind Speed 15 mph (South)    
Max Wind Speed 26 mph    
Max Gust Speed 35 mph    
Visibility 10 miles    
Events      
T = Trace of Precipitation, MM = Missing Value Source: NWS Daily Summary

Daily Weather History Graph

Daily Weather History Graph

Search for Another Location

Airport:

Trip Planner

Search our weather history database for the weather conditions in past years. The results will help you decide how hot, cold, wet, or windy it might be!

Date:

Astronomy

Mar. 03, 2013 Rise Set
Actual Time 6:53 AM CST 6:28 PM CST
Civil Twilight 6:28 AM CST 6:53 PM CST
Nautical Twilight 6:00 AM CST 7:21 PM CST
Astronomical Twilight 5:32 AM CST 7:49 PM CST
Moon No Moon Rise 10:33 AM CST (3/3)
Length of Visible Light 12h 24m
Length of Day
11h 35m
Waning Gibbous, 63% of the Moon is Illuminated
Mar 3
Waning Gibbous
Mar 4
Last Quarter
Mar 11
New
Mar 19
First Quarter
Mar 27
Full

Hourly Weather History & Observations

Time (CST) Temp. Windchill Dew Point Humidity Pressure Visibility Wind Dir Wind Speed Gust Speed Precip Events Conditions
12:51 AM 39.0 °F 35.7 °F 26.1 °F 60% 30.26 in 10.0 mi South 4.6 mph - N/A   Clear
1:51 AM 34.0 °F 28.8 °F 26.1 °F 73% 30.25 in 10.0 mi SSW 5.8 mph - N/A   Clear
2:51 AM 37.4 °F 33.8 °F 24.8 °F 60% 30.23 in 10.0 mi SSW 4.6 mph - N/A   Clear
3:51 AM 34.0 °F 28.8 °F 25.0 °F 70% 30.22 in 10.0 mi SSW 5.8 mph - N/A   Clear
4:51 AM 37.0 °F 30.4 °F 26.1 °F 65% 30.21 in 10.0 mi South 9.2 mph - N/A   Clear
5:51 AM 37.4 °F 30.8 °F 24.8 °F 60% 30.22 in 10.0 mi South 9.2 mph - N/A   Clear
6:51 AM 42.1 °F 35.7 °F 26.1 °F 53% 30.21 in 10.0 mi South 11.5 mph - N/A   Clear
7:51 AM 46.4 °F 40.1 °F 24.8 °F 43% 30.21 in 10.0 mi South 15.0 mph - N/A   Clear
8:51 AM 51.1 °F - 25.0 °F 36% 30.21 in 10.0 mi South 18.4 mph 24.2 mph N/A   Clear
9:51 AM 55.0 °F - 25.0 °F 31% 30.19 in 10.0 mi South 21.9 mph - N/A   Clear
10:51 AM 60.1 °F - 27.0 °F 28% 30.16 in 10.0 mi South 18.4 mph - N/A   Clear
11:51 AM 64.0 °F - 28.9 °F 27% 30.12 in 10.0 mi South 17.3 mph - N/A   Clear
12:51 PM 68.0 °F - 32.0 °F 26% 30.07 in 10.0 mi South 19.6 mph - N/A   Clear
1:51 PM 71.6 °F - 35.6 °F 27% 30.02 in 10.0 mi South 18.4 mph - N/A   Clear
2:51 PM 73.0 °F - 34.0 °F 24% 29.98 in 10.0 mi South 19.6 mph - N/A   Clear
3:51 PM 72.0 °F - 34.0 °F 25% 29.94 in 10.0 mi South 23.0 mph 29.9 mph N/A   Clear
4:51 PM 72.0 °F - 34.0 °F 25% 29.91 in 10.0 mi South 18.4 mph 34.5 mph N/A   Clear
5:51 PM 70.0 °F - 33.1 °F 26% 29.90 in 10.0 mi South 19.6 mph 31.1 mph N/A   Clear
6:51 PM 66.0 °F - 35.1 °F 32% 29.89 in 10.0 mi South 16.1 mph - N/A   Clear
7:51 PM 62.6 °F - 35.6 °F 37% 29.88 in 10.0 mi South 16.1 mph - N/A   Clear
8:51 PM 62.1 °F - 37.0 °F 39% 29.88 in 10.0 mi South 13.8 mph - N/A   Clear
9:51 PM 60.1 °F - 39.9 °F 47% 29.87 in 10.0 mi South 20.7 mph - N/A   Clear
10:51 PM 60.1 °F - 41.0 °F 49% 29.86 in 10.0 mi South 20.7 mph 29.9 mph N/A   Clear
11:51 PM 57.9 °F - 41.0 °F 53% 29.86 in 10.0 mi South 20.7 mph 27.6 mph N/A   Clear